Regional Weather Roundup
Issued by NWS Grand Forks, ND

Home | Current Version | Previous Version | Text Only | Print | Product List | Glossary Off
Versions: 1 2 3 4 5 6 7 8 9 10 11 12 13 14 15 16 17 18 19 20 21 22 23 24 25 26 27 28 29 30 31 32 33 34 35 36 37 38 39 40 41 42 43 44 45 46 47 48 49 50

000
ASUS43 KFGF 250810
RWRFGF
PRAIRIE TO PINES  WEATHER ROUNDUP
NATIONAL WEATHER SERVICE EASTERN NORTH DAKOTA/GRAND FORKS ND
300 AM CDT WED MAY 25 2016

 **SATELLITE DATA USED TO AUGMENT SKY COVER AT AUTOMATED STATIONS**
 *****  WEATHER ACROSS EASTERN NORTH DAKOTA  *****

CITY           SKY/WX    TMP DP  RH WIND       PRES   REMARKS
GRAND FORKS    PTCLDY    60  50  69 E6        29.87S
GRAND FRKS AFB CLOUDY    61  49  65 SE6       29.88F
GRAND FRKS NWS   N/A     61 N/A N/A SE5         N/A
DEVILS LAKE    MOCLDY    62  54  74 SE7       29.87F
FARGO          CLOUDY    66  52  60 E10       29.85S
WAHPETON ARPT  CLOUDY    63  48  59 SE9       29.84F
$$

 ***** WEATHER ACROSS CENTRAL AND WESTERN NORTH DAKOTA  *****

CITY           SKY/WX    TMP DP  RH WIND       PRES   REMARKS
BISMARCK       CLOUDY    60  55  83 NE10      29.84F
MINOT          CLOUDY    60  49  66 CALM      29.86F
JAMESTOWN      NOT AVBL
MINOT AFB      CLOUDY    57  45  63 SE7       29.85F
GARRISON         N/A     58  51  78 NE13G20   29.84F
WILLISTON      CLOUDY    57  39  51 N10       29.88R
DICKINSON      CLOUDY    55  50  83 NW8       29.83S
HETTINGER      CLOUDY    56  47  71 S6        29.85F
$$

 *****  OTHER AIRPORT OBSERVATIONS IN OUR AREA  *****

CITY           SKY/WX    TMP DP  RH WIND       PRES   REMARKS
WALHALLA       FAIR      52  52 100 CALM      29.90S
GRAFTON AIRPOR FAIR      61  54  77 SE7       29.90F
VALLEY CITY AR FAIR      63  52  67 E9        29.87F
CANDO          NOT AVBL
CAVALIER APRT  FAIR      55  54  94 CALM      29.89S
GWINNER        NOT AVBL
SHEYENNE NWR     N/A     61  52  72 E7        29.95S
ROLLA          FAIR      55  45  67 N5        29.90F
 ***** THE ABOVE OBSERVATIONS ARE NON NWS ARE NOT QUALITY
       CONTROLLED AND MAY MIS-REPORT RAIN FOR SNOW...
$$

  *****  WEATHER ACROSS NORTHERN MINNESOTA  *****

CITY           SKY/WX    TMP DP  RH WIND       PRES   REMARKS
FLAG ISLAND    CLEAR     57  54  88 SE7       29.93F
WARROAD        CLEAR     55  52  88 SE5       29.94F
ROSEAU         CLEAR     57  52  82 E3        29.93S
HALLOCK        HAZE      59  52  77 E8        29.89F VSB 1
THF RVR FALLS  CLOUDY    61  48  63 E8        29.92F
BAUDETTE       CLEAR     52  49  89 SE6       29.95F
WASKISH        CLEAR     54  50  87 CALM      29.94F
CROOKSTON      CLOUDY    61  52  72 E8        29.90R
STEPHEN NDAWN    N/A     61  54  77 SE9         N/A
GREENBUSH NDAW   N/A     55  52  88 SE3         N/A
$$
  *****  WEATHER ACROSS CENTRAL AND WEST MINNESOTA  *****

CITY           SKY/WX    TMP DP  RH WIND       PRES   REMARKS
FOSSTON        PTCLDY    54  46  76 E3        29.92S
BEMIDJI        CLEAR     51  49  92 E3        29.93F
PARK RAPIDS    CLEAR     61  51  70 E9        29.93R
ELBOW LAKE     FAIR      64  52  66 SE13      29.86F
WADENA         NOT AVBL
DETROIT LAKES  PTCLDY    63  52  67 SE9       29.91R
MOORHEAD       MOCLDY    64  52  63 E10       29.86S
FERGUS FALLS   CLOUDY    64  50  59 SE8       29.83F
MORRIS MN      CLOUDY    63  54  72 E10       29.84F
STAPLES        CLEAR     57  52  82 E5        29.93R
$$
  *****  WEATHER ELSEWHERE ACROSS MINNESOTA  *****

CITY           SKY/WX    TMP DP  RH WIND       PRES   REMARKS
DULUTH         FOG       51  50  96 E10       30.01F VSB 1/2
INTRNTL FALLS  CLEAR     44  43  96 CALM      29.97S
ELY            PTCLDY    50  48  93 S7        30.02R
CLOQUET        FOG       52  48  87 E7        30.02S VSB 1/2
WHEATON        CLOUDY    63  55  77 SE9       29.85F
BRAINERD       PTCLDY    56  53  90 E9        29.95S
HIBBING        CLOUDY    53  52  96 SE12      30.01S
ALEXANDRIA     CLOUDY    62  51  67 SE10      29.90F
SAINT CLOUD    CLOUDY    62  54  74 E8        29.91F
MINNEAPOLIS    CLOUDY    68  57  68 E7        29.92S
$$

  *****  WEATHER ACROSS SOUTH DAKOTA  *****

CITY           SKY/WX    TMP DP  RH WIND       PRES   REMARKS
SIOUX FALLS    CLOUDY    68  62  81 SE10      29.80F
BROOKINGS      CLOUDY    66  61  84 SE10      29.82F
WATERTOWN      CLOUDY    67  56  67 SE7       29.82F
HURON          CLOUDY    67  62  84 NW10      29.77R
SISSETON         N/A     60  53  77 CALM      29.82F
ABERDEEN       CLOUDY    65  53  65 SW14      29.81R
MITCHELL       CLOUDY    69  61  75 SE13      29.74F
PIERRE         CLOUDY    57  54  89 N16       29.72F
MOBRIDGE       LGT RAIN  62  52  69 S9        29.79F
RAPID CITY     CLOUDY    51  47  86 CALM      29.85R
$$

  *****  SOME WEATHER IN NEARBY STATES *****

CITY           SKY/WX    TMP DP  RH WIND       PRES   REMARKS
GLASGOW MT     CLEAR     47  42  83 NE9       29.87F
GREAT FALLS MT CLEAR     40  37  89 SW9       29.89F
CHEYENNE WY    CLEAR     50  34  54 NW14      29.94F
SCOTTSBLUFF NE CLOUDY    51  48  89 N7        29.90S
OMAHA NE       TSTM      66  60  81 CALM      29.81F
DES MOINES IA  CLOUDY    68  63  84 E7        29.84F
DAVENPORT IA   CLOUDY    64  60  87 S7        29.96F
CHICAGO IL     MOCLDY    71  61  70 SW8       29.98F
EAU CLAIRE WI  CLOUDY    58  55  90 CALM      29.96R
LA CROSSE WI   CLEAR     62  58  86 E8        29.95S
$$

  *****  SOME NATIONAL WEATHER *****

CITY           SKY/WX    TMP DP  RH WIND       PRES   REMARKS
LA GUARDIA NY  CLEAR     64  57  78 N5        30.00R
RALEIGH NC     MOCLDY    62  55  77 CALM      30.17R
ATLANTA GA     PTCLDY    69  52  54 CALM      30.17S
NEW ORLEANS LA PTCLDY    76  71  85 SE7       30.08F
OKLAHOMA CITY  CLOUDY    76  72  87 S13G21    29.86F
ALBUQUERQUE NM CLEAR     63  13  14 W6        30.07R
SALT LAKE CITY PTCLDY    52  39  61 E6        29.95R
LOS ANGELES CA MOCLDY    58  52  80 W8        30.05S
BOISE ID       MOCLDY    54  39  57 CALM      29.90R
SEATTLE WA     CLOUDY    55  51  86 W5        30.05R
$$

*** WEATHER ACROSS MANITOBA...SASKATCHEWAN AND ONTARIO ***
                ***ONTARIO***

CITY           SKY/WX    TMP DP  RH WIND       PRES   REMARKS
GERALDTON      MOCLDY    45  41  87 E6        30.10R
THUNDER BAY    CLOUDY    50  46  87 E7        30.06R
SIOUX LOOKOUT  CLOUDY    48  48 100 SE5       30.01R
TORONTO        CLEAR     64  43  45 W5        29.97S
BIG TROUT LK   CLOUDY    45  37  76 SE8       30.07S
PICKLE LAKE    NOT AVBL
DRYDEN         FOG       52  52 100 E5        29.99F VSB 5/8
KENORA         CLEAR     52  50  93 SE6       29.96F
$$
                *** MANITOBA***

CITY           SKY/WX    TMP DP  RH WIND       PRES   REMARKS
BRANDON        MOCLDY    52  50  93 E7        29.91S
DAUPHIN        CLOUDY    48  46  93 N6        29.92F
ISLAND LAKE    NOT AVBL
PILOT MOUND    NOT AVBL
THE PAS        PTCLDY    41  39  93 CALM      29.96S
THOMPSON       NOT AVBL
WINNIPEG       MOCLDY    57  48  72 SE9       29.91F
LYNN LAKE      CLOUDY    46  39  76 S6        29.96R
CHURCHILL      CLOUDY    32  27  80 SE13      30.12F WCI  22
GILLAM         CLOUDY    39  32  75 SE5       30.07S
$$
                ***SASKATCHEWAN***

CITY           SKY/WX    TMP DP  RH WIND       PRES   REMARKS
ESTEVAN        CLEAR     41  36  81 N5        29.87F
KINDERSLEY     MOCLDY    45  45 100 NE7       29.88S
LLOYDMINSTER   CLEAR     43  41  93 S6        29.89S
PRINCE ALBERT  CLEAR     41  41 100 NE6       29.91F
REGINA         CLEAR     41  37  87 S7        29.88F
YORKTON        FOG       45  45 100 NE5       29.90F VSB 5/8
N. BATTLEFORD  CLOUDY    46  46 100 E7        29.92S
LA RONGE       PTCLDY    46  45  93 SE7       29.92S
SASKATOON      CLEAR     45  45 100 NE9       29.89R
SWIFT CURRENT  CLEAR     43  43 100 SW8       29.86S
$$
NOTE: THESE ARE AUTOMATED STATIONS WITH LIMITED QUALITY CONTROL
      "FAIR" INDICATES FEW OR NO CLOUDS BELOW 12,000 FEET WITH NO
      SIGNIFICANT WEATHER AND/OR OBSTRUCTIONS TO VISIBILITY.
      SKY/WX - SKY CONDITION AND SIGNIFICANT WEATHER.
      TMP - AIR TEMPERATURE.    DP   - DEWPOINT TEMPERATURE.
      RH  - RELATIVE HUMIDITY.  PRES - PRESSURE.
      HX  - HEAT INDEX.         WCI  - WIND CHILL INDEX.
$



USA.gov is the U.S. government's official web portal to all federal, state and local government web resources and services.